Location: Poughquag
(41.6090°N, 73.6820°W)
Time: 11:08:42
(UTC-05:00)

ISS - Pass Details

Date: 26 January 2020
Orbit: 415 x 422 km, 51.6° (Epoch: 26 February)

Event Time Altitude Azimuth Distance (km) Brightness Sun altitude
Rises 18:34:57 0° 282° (WNW) 2,377 1.4 -17.3°
Reaches altitude 10° 18:37:32 10° 302° (WNW) 1,511 -0.3 -17.8°
Maximum altitude 18:39:57 18° 347° (NNW) 1,119 -1.6 -18.2°
Enters shadow 18:40:39 17° 4° (N) 1,158 -1.7 -18.4°
